Regional Weather Roundup
Issued by NWS

Home | Current Version | Previous Version | Text Only | Print | Product List | Glossary On
Versions: 1 2 3 4 5 6 7 8 9 10 11 12 13 14 15 16 17 18 19 20 21 22 23 24 25 26 27 28 29 30 31 32 33 34 35 36 37 38 39 40 41 42 43 44 45 46 47 48 49 50
000
ASUS43 KDTX 182110
RWRMI
MICHIGAN HOURLY REGIONAL WEATHER ROUNDUP
NATIONAL WEATHER SERVICE DETROIT/PONTIAC MI
400 PM EST SUN FEB 18 2018

NOTE: "FAIR" INDICATES FEW OR NO CLOUDS BELOW 12,000 FEET WITH NO
SIGNIFICANT WEATHER AND/OR OBSTRUCTION TO VISIBILITY.

MIZ047>049-052>055-059>063-066>070-074>076-081>083-182200-
SOUTHEAST LOWER MICHIGAN

CITY           SKY/WX    TMP DP  RH WIND       PRES   REMARKS
ADRIAN           N/A     32  26  78 S8        30.28F WCI  25
ALMA           FAIR      37  27  68 S13       30.19F WCI  28
ANN ARBOR      FAIR      31  25  78 SE12      30.28F WCI  22
BAD AXE        FAIR      34  23  64 S13       30.23F WCI  25
CARO           FAIR      39  23  52 S9        30.20F WCI  33
DETROIT CITY   FAIR      35  26  69 S10       30.30F WCI  27
DETROIT        CLOUDY    35  26  69 S12       30.30F WCI  27
FLINT          FAIR      37  24  59 S15       30.23F WCI  28
GROSSE ILE     PTSUNNY   34  28  79 S10       30.30F WCI  26
HILLSDALE      FAIR      32  27  80 SE10      30.21F WCI  24
HOWELL         FAIR      37  26  67 SE15      30.23F WCI  27

CITY           SKY/WX    TMP DP  RH WIND       PRES   REMARKS
JACKSON        FAIR      35  25  66 SE12      30.22F WCI  27
LAMBERTVILLE   FAIR      36  28  71 S5        30.29F WCI  32
LANSING        FAIR      36  25  64 S14       30.21F WCI  27
LAPEER         FAIR      39  22  51 S13       30.24F WCI  31
MASON          FAIR      36  23  58 S12       30.21F WCI  28
MONROE         FAIR      35  26  68 SW8       30.29F WCI  29
MT. CLEMENS    PTSUNNY   35  29  79 S14       30.28S WCI  26
PONTIAC        CLOUDY    34  24  67 S10       30.25F WCI  26
PORT HOPE        N/A     36  23  59 S9        30.23F WCI  29
PORT HURON     FAIR      34  23  64 S14       30.30S WCI  24
TRI CITIES     FAIR      37  25  61 S9        30.21F WCI  30
MIDLAND        FAIR      38  24  57 S9        30.20S WCI  32
TROY           FAIR      38  26  61 SW9       30.30S WCI  32
SAGINAW HB     FAIR      36  27  69 S15       30.21F WCI  26
$$
MIZ043>046-050>051-056>058-064>065-071>073-077>080-182200-
SOUTHWEST LOWER MICHIGAN

CITY           SKY/WX    TMP DP  RH WIND       PRES   REMARKS
BATTLE CREEK   FAIR      35  25  66 S12       30.19F WCI  27
BENTON HARBOR  FAIR      35  24  64 SE13G21   30.16F WCI  26
BIG RAPIDS     FAIR      37  19  50 S13       30.13F WCI  28
COLDWATER      FAIR      34  25  70 SE8       30.21F WCI  27
FREMONT        FAIR      36  17  44 S8        30.13F WCI  30
HOLLAND        FAIR      39  24  55 S13       30.15F WCI  31
GRAND RAPIDS   PTSUNNY   39  24  55 S10       30.16F WCI  32
IONIA          FAIR      37  25  62 SE14      30.17F WCI  28
KALAMAZOO      FAIR      35  24  64 SE8       30.19F WCI  29
LUDINGTON      FAIR      35  24  64 S15G25    30.11F WCI  25
MARSHALL       FAIR      34  23  65 SE10      30.20F WCI  26
MOUNT PLEASANT FAIR      37  24  59 S13       30.18S WCI  29
MUSKEGON       PTSUNNY   37  26  64 S8        30.14F WCI  31
SOUTH HAVEN    FAIR      37  24  58 S12G18    30.15F WCI  29
$$
MIZ016>042-182200-
NORTHERN LOWER MICHIGAN

CITY           SKY/WX    TMP DP  RH WIND       PRES   REMARKS
ALPENA         CLOUDY    36  21  54 S8        30.16F WCI  30
BEAVER ISLAND  CLOUDY    32  23  70 S3        30.08F
BELLAIRE       FAIR      36  22  58 S13       30.11F WCI  27
CADILLAC       FAIR      35  20  54 S15       30.10S WCI  26
CHARLEVOIX     PTSUNNY   34  20  57 S6        30.12F WCI  29
FRANKFORT      FAIR      34  28  80 S10G16    30.09F WCI  26
GAYLORD        PTSUNNY   32  20  61 S12       30.08F WCI  23
GRAYLING       PTSUNNY   35  19  53 S8        30.11S WCI  28
HARBOR SPRINGS PTSUNNY   36  19  50 S9        30.10F WCI  29
HOUGHTON LAKE  FAIR      34  22  61 S13       30.13F WCI  25
MANISTEE       FAIR      36  22  56 S12       30.10F WCI  28
OSCODA         FAIR      32  22  64 S12G20    30.19F WCI  23
PELLSTON       CLOUDY    32  20  61 SE8       30.09F WCI  25
ROGERS CITY    CLOUDY    36  19  50 S6        30.15F WCI  31
TRAVERSE CITY  CLOUDY    40  20  44 S10G16    30.09F WCI  33
$$
MIZ007>008-015-182200-
EASTERN UPPER MICHIGAN

CITY           SKY/WX    TMP DP  RH WIND       PRES   REMARKS
KINROSS        LGT SNOW  26  22  84 S10       30.10F FOG     WCI  16
MACKINAC ISLAN CLOUDY    29  22  74 SE6       30.09F WCI  23
NEWBERRY       CLOUDY    23  22  97 SE8       30.05F WCI  14
S. S. MARIE    LGT SNOW  28  21  75 S8        30.10F VSB 3/4 WCI  20
MUNISING         N/A     27  21  78 S10G21    29.98F WCI  17
$$
MIZ004>006-011>014-085-182200-
CENTRAL UPPER MICHIGAN

CITY           SKY/WX    TMP DP  RH WIND       PRES   REMARKS
MANISTIQUE     CLOUDY    30  26  83 S17G23    30.04F WCI  18
ESCANABA       CLOUDY    29  23  78 S13       29.99F WCI  19
MENOMINEE      PTSUNNY   33  26  75 S18       29.97  WCI  22
SAWYER-GWINN   CLOUDY    23  16  74 S17G23    29.91F WCI   9
$$
MIZ001>003-009>011-084-182200-
WESTERN UPPER MICHIGAN

CITY           SKY/WX    TMP DP  RH WIND       PRES   REMARKS
IRON MOUNTAIN  CLOUDY    28  15  58 SE16G25   29.84F WCI  16
HOUGHTON       CLOUDY    22  15  75 E22       29.75F WCI   6
COPPER HARBOR    N/A     23  19  85 S12G25    29.83F WCI  12
IRONWOOD       CLOUDY    31  18  58 S12       29.70R WCI  22
$$

ABBREVIATIONS USED IN REMARKS
   TC - TEMPERATURE IN CELSIUS
  WCI - WIND CHILL INDEX
   HX - HEAT INDEX
  VSB - VISIBILITY





USA.gov is the U.S. government's official web portal to all federal, state and local government web resources and services.